Location: Boca do Mato
(22.9085°S, 43.2930°W)
Time: 21:02:55
(UTC+00:00)

Envisat - Pass Details

Date: 14 July 2020
Orbit: 764 x 766 km, 98.1° (Epoch: 10 August)

Event Time Altitude Azimuth Distance (km) Brightness Sun altitude
Rises 08:58:58 0° 357° (N) 3,211 6.5 -8.3°
Reaches altitude 10° 09:01:22 10° 349° (N) 2,292 5.6 -7.7°
Maximum altitude 09:06:06 41° 280° (W) 1,107 3.5 -6.7°
Drops below altitude 10° 09:10:55 10° 210° (SSW) 2,318 5.0 -5.7°
Sets 09:13:22 0° 202° (SSW) 3,251 5.8 -5.2°
